Hourly Data Report for July 26, 2021

WINDSOR A
ONTARIO
Current Station Operator: NAVCAN

42°16'34.000" N
82°57'19.000" W
189.60 m
6139530
71538
YQG

Download Data

Hourly Data (July 2021)
Hourly Data Report for July 26, 2021
TIME
LST
Temp Definition
°C
Dew Point Definition
°C
Rel Hum Definition
%
Precip. Amount Definition
mm

Wind Dir Definition
10's deg

Wind Spd Definition
km/h
Visibility Definition
km
Stn Press Definition
kPa
Hmdx Definition


Wind Chill Definition


Weather Definition


00:00 22.5 15.8 65 0.0 29 9 16.1 99.15 27   LegendNANA
01:00 21.9 15.6 67 0.0 29 9 16.1 99.14 26   LegendNANA
02:00 21.1 15.5 70 0.0 29 13 16.1 99.14 25   LegendNANA
03:00 20.3 15.8 75 0.0 29 13 16.1 99.15 25   LegendNANA
04:00 19.6 15.9 79 0.0 29 11 16.1 99.17     LegendNANA
05:00 18.8 15.7 82 0.0 29 9 16.1 99.19     LegendNANA
06:00 17.4 15.8 90 0.0 26 5 16.1 99.24     LegendNANA
07:00 21.6 17.2 76 0.0 27 5 16.1 99.28 27   LegendNANA
08:00 24.6 17.0 62 0.0 30 5 16.1 99.30 30   LegendNANA
09:00 27.1 15.8 49 0.0 31 11 16.1 99.32 32   LegendNANA
10:00 28.6 16.1 46 0.0 29 22 16.1 99.30 33   LegendNANA
11:00 29.4 15.3 42 0.0 31 17 16.1 99.31 34   LegendNANA
12:00 29.6 15.1 41 0.0 29 15 16.1 99.29 34   LegendNANA
13:00 30.8 13.4 34 0.0 31 13 16.1 99.29 34   LegendNANA
14:00 30.7 12.5 32 0.0 35 8 14.5 99.30 33   LegendNANA
15:00 31.5 13.5 33 0.0 30 13 11.3 99.31 35   LegendNANA
16:00 31.2 14.4 35 0.0 32 15 16.1 99.29 35   LegendNANA
17:00 30.8 13.6 34 0.0 31 17 16.1 99.25 34   LegendNANA
18:00 30.0 13.8 37 0.0 33 13 16.1 99.22 33   LegendNANA
19:00 29.1 14.1 39 0.0 32 13 16.1 99.26 33   LegendNANA
20:00 27.9 14.0 42 0.0 32 8 16.1 99.29 31   LegendNANA
21:00 24.1 18.3 70 0.0 25 5 16.1 99.32 30   LegendNANA
22:00 21.9 18.0 78 0.0 22 5 16.1 99.35 28   LegendNANA
23:00 22.4 15.6 65 0.0 22 5 16.1 99.35 27   LegendNANA

Notes on Data Quality.

Legend

  • E = Estimated
  • M = Missing
  • NA = Not Available*
  • [empty] = Indicates an unobserved value
Date modified: